TimePST,TemperatureF,Dew PointF,Humidity,Sea Level PressureIn,VisibilityMPH,Wind Direction,Wind SpeedMPH,Gust SpeedMPH,PrecipitationIn,Events,Conditions,WindDirDegrees,DateUTC
12:52 AM,39.0,37.0,93,29.97,-9999.0,North,3.5,-,N/A,,Unknown,350,2011-11-06 07:52:00
1:52 AM,37.0,34.0,89,29.97,-9999.0,Calm,Calm,-,N/A,,Unknown,0,2011-11-06 08:52:00
1:52 AM,34.0,32.0,92,29.98,-9999.0,Calm,Calm,-,N/A,,Unknown,0,2011-11-06 09:52:00
2:52 AM,36.0,34.0,93,29.97,-9999.0,Calm,Calm,-,N/A,,Unknown,0,2011-11-06 10:52:00
3:52 AM,36.0,35.1,97,29.97,-9999.0,Calm,Calm,-,N/A,,Unknown,0,2011-11-06 11:52:00
4:52 AM,37.0,37.0,100,29.98,-9999.0,Calm,Calm,-,N/A,,Unknown,0,2011-11-06 12:52:00
5:52 AM,37.0,35.1,93,29.99,-9999.0,Calm,Calm,-,N/A,,Unknown,0,2011-11-06 13:52:00
6:52 AM,37.9,37.0,97,30.00,-9999.0,Calm,Calm,-,N/A,,Unknown,0,2011-11-06 14:52:00
7:52 AM,41.0,39.0,93,30.01,-9999.0,Calm,Calm,-,N/A,,Unknown,0,2011-11-06 15:52:00
8:52 AM,46.0,37.9,73,30.01,-9999.0,Calm,Calm,-,N/A,,Unknown,0,2011-11-06 16:52:00
9:52 AM,50.0,37.9,63,29.99,-9999.0,Calm,Calm,-,N/A,,Unknown,0,2011-11-06 17:52:00
10:52 AM,52.0,39.0,61,29.97,-9999.0,SSW,9.2,17.3,N/A,,Unknown,210,2011-11-06 18:52:00
11:52 AM,51.1,37.9,61,29.94,-9999.0,SW,10.4,-,N/A,,Unknown,230,2011-11-06 19:52:00
12:52 PM,51.1,39.9,66,29.92,-9999.0,SW,17.3,24.2,N/A,,Unknown,230,2011-11-06 20:52:00
1:52 PM,48.9,42.1,77,29.92,-9999.0,WSW,12.7,18.4,N/A,,Unknown,240,2011-11-06 21:52:00
2:52 PM,48.0,44.1,86,29.91,-9999.0,SW,16.1,20.7,0.01,,Unknown,230,2011-11-06 22:52:00
3:52 PM,46.0,44.1,93,29.92,-9999.0,WSW,12.7,-,0.10,,Unknown,240,2011-11-06 23:52:00
4:52 PM,45.0,42.1,90,29.93,-9999.0,SW,10.4,-,0.09,,Unknown,230,2011-11-07 00:52:00
5:52 PM,43.0,41.0,93,29.94,-9999.0,SSW,6.9,-,0.04,,Unknown,210,2011-11-07 01:52:00
6:52 PM,44.1,41.0,89,29.94,-9999.0,SW,11.5,-,N/A,,Unknown,220,2011-11-07 02:52:00
7:52 PM,43.0,41.0,93,29.96,-9999.0,SW,4.6,-,N/A,,Unknown,220,2011-11-07 03:52:00
8:52 PM,44.1,41.0,89,29.96,-9999.0,SW,5.8,-,N/A,,Unknown,220,2011-11-07 04:52:00
9:52 PM,43.0,41.0,93,29.96,-9999.0,SW,8.1,-,N/A,,Unknown,220,2011-11-07 05:52:00
10:52 PM,42.1,39.9,92,29.95,-9999.0,SW,5.8,-,N/A,,Unknown,230,2011-11-07 06:52:00